Simultaneous Nadir Overpasses (SNOs) Predictions

Prediction of SNOs between AQUA and GOES-15 Satellite Orbit:

Table of predicted SNOs for the next 14.0 days since TLE Epoch: 6/3/2023
Index Date Time (AQUA) AQUA Lat,Lon GOES-15 Lat,Lon Distance(km) Time Diff (sec)
1 06/03/2023 12:10:52 -0.24,-155.48 -0.03,-156.35 100.20 80
2 06/04/2023 00:31:47 -0.78,-160.56 0.06,-156.56 454.36 80
3 06/06/2023 00:17:46 0.13,-157.16 0.06,-157.39 26.72 80
4 06/08/2023 12:24:31 0.02,-158.80 -0.07,-158.44 41.44 12
5 06/10/2023 12:10:29 -0.90,-155.41 -0.05,-159.26 438.83 80
6 06/11/2023 00:31:24 -0.16,-160.48 0.08,-159.46 116.22 80
7 06/13/2023 00:17:21 0.73,-157.07 0.07,-160.28 363.91 80
8 06/13/2023 12:38:09 0.22,-162.13 -0.11,-160.50 184.53 80
9 06/15/2023 12:24:05 -0.65,-158.72 -0.09,-161.31 294.77 80
10 06/16/2023 00:45:00 -0.39,-163.79 0.13,-161.50 260.82 80
